TimeMST,TemperatureF,Dew PointF,Humidity,Sea Level PressureIn,VisibilityMPH,Wind Direction,Wind SpeedMPH,Gust SpeedMPH,PrecipitationIn,Events,Conditions,WindDirDegrees,DateUTC
12:53 AM,30.0,23.0,75,30.21,10.0,ENE,3.5,-,N/A,,Clear,70,2013-11-27 07:53:00
1:53 AM,30.0,23.0,75,30.19,10.0,Variable,3.5,-,N/A,,Clear,0,2013-11-27 08:53:00
2:53 AM,28.9,23.0,78,30.18,10.0,NNW,3.5,-,N/A,,Clear,340,2013-11-27 09:53:00
3:53 AM,30.0,23.0,75,30.17,10.0,Variable,3.5,-,N/A,,Clear,0,2013-11-27 10:53:00
4:53 AM,30.0,23.0,75,30.17,10.0,NNE,6.9,-,N/A,,Clear,30,2013-11-27 11:53:00
5:53 AM,28.0,23.0,81,30.19,10.0,NE,8.1,-,N/A,,Clear,40,2013-11-27 12:53:00
6:53 AM,28.0,21.9,78,30.20,10.0,ENE,6.9,-,N/A,,Clear,70,2013-11-27 13:53:00
7:53 AM,24.1,21.0,88,30.22,10.0,Variable,4.6,-,N/A,,Clear,0,2013-11-27 14:53:00
8:53 AM,30.0,24.1,79,30.19,10.0,NNE,3.5,-,N/A,,Clear,30,2013-11-27 15:53:00
9:53 AM,35.1,26.1,70,30.19,10.0,NE,6.9,-,N/A,,Clear,50,2013-11-27 16:53:00
10:53 AM,39.9,26.1,58,30.18,10.0,NE,11.5,-,N/A,,Clear,40,2013-11-27 17:53:00
11:53 AM,45.0,27.0,49,30.14,10.0,NE,6.9,-,N/A,,Clear,50,2013-11-27 18:53:00
12:53 PM,46.0,28.0,50,30.11,10.0,ENE,9.2,-,N/A,,Clear,60,2013-11-27 19:53:00
1:53 PM,48.9,28.9,46,30.07,10.0,ENE,5.8,-,N/A,,Clear,70,2013-11-27 20:53:00
2:53 PM,52.0,25.0,35,30.05,10.0,East,5.8,-,N/A,,Clear,80,2013-11-27 21:53:00
3:53 PM,50.0,28.0,43,30.04,10.0,NE,6.9,-,N/A,,Clear,50,2013-11-27 22:53:00
4:53 PM,45.0,28.0,52,30.05,10.0,NE,3.5,-,N/A,,Clear,40,2013-11-27 23:53:00
5:53 PM,39.0,27.0,62,30.07,10.0,Calm,Calm,-,N/A,,Clear,0,2013-11-28 00:53:00
6:53 PM,34.0,26.1,73,30.09,10.0,SE,3.5,-,N/A,,Clear,130,2013-11-28 01:53:00
7:53 PM,30.9,26.1,82,30.11,10.0,Calm,Calm,-,N/A,,Clear,0,2013-11-28 02:53:00
8:53 PM,30.9,25.0,79,30.10,10.0,Calm,Calm,-,N/A,,Clear,0,2013-11-28 03:53:00
9:53 PM,33.1,26.1,75,30.09,10.0,Calm,Calm,-,N/A,,Clear,0,2013-11-28 04:53:00
10:53 PM,34.0,26.1,73,30.08,10.0,NE,5.8,-,N/A,,Clear,50,2013-11-28 05:53:00
11:53 PM,33.1,26.1,75,30.08,10.0,NE,6.9,-,N/A,,Clear,50,2013-11-28 06:53:00